TITAN 3C TRANSTAGE DEB, 34163

Orbit data source: Space-Track

TITAN 3C TRANSTAGE DEB, 34163 is space debris in HEO originally from a launch on Tue, 21 Dec 1965 UTC launched from the Air Force Eastern Test Range (AFETR). Debris objects in space refer to the collection of defunct objects orbiting the Earth. Examples of debris include non-operational satellites, rocket bodies, and fragments generated from explosions, collisions, or faulty payload assembly.

Loading next visibility...
Identifier
34163, 1965-108CW
Orbit
HEO
Country
Flag of USUS
Related business
Manufacturer
Unknown
Mission
Spacecraft
Bus & Motor
Unknown
Mass
Unknown
Launch date (UTC)
1965-12-21 (60 years ago)
Launch vehicle
Unknown
Launch site
Air Force Eastern Test Range (AFETR)
Object type
Payload
Rocket body
Debris
Shape & HBR
Unknown shape, 0.2 m
Radar Cross Section
Medium (>0.1 m² and <1 m²)

Expand to show TLE details & history
Last TLE update: 2 months ago

TLE from 2 months ago
0 TITAN 3C TRANSTAGE DEB
1 34163U 65108CW  25341.45164660 -.00000085  00000-0  00000-0 0  9998
2 34163  26.5966 101.9498 6703293 204.8699 107.4767  2.49400419 19503
Epoch: 2025-12-07T10:50Z
TLE epoch observation values (Epoch: 2025-12-07T10:50:22.266Z)
Latitude
1.73508°
Longitude
-133.67341°
Altitude
27,450.613 km
Speed
2.492 km/s
True Right ascension
07h 01m 32s
True Declination
1° 43' 58"
Sunlit
Object was in daylight at epoch
Visualization orbit readout
Latitude
Unknown
Longitude
Unknown
Altitude
Unknown
Speed
Unknown
Apparent Right ascension
Unknown
Apparent Declination
Unknown
Sunlit
N/A
Visualization observer readout
Local Sidereal Time
03:55:32
Azimuth
Unknown
Elevation
Unknown
Doppler factor
Unknown
Orbital elements
Apogee altitude
31,992.718 km
Perigee altitude
1,195.068 km
Semi-major axis
22,972.03 km
Eccentricity
0.67033
Inclination
26.5966°
RAAN
101.9498°
Arg. of periapsis
204.8699°
True anomaly
159.02126°
Mean anomaly
107.4767°
Eccentric anomaly
134.75191°
Mean motion
0.62337 °/min
Orbital period
577.51 mins
BSTAR
0
Loading maneuver chart data...
Computing Atmospheric mass density...

Documentation

Showing up to 5 results
|